VU2EXP-13 Weather Reports


Display with metric or nautical units.
time (UTC)temp
F
wind
direction
speed
MPH
gust
MPH
rain 1hr
in
rain 24hr
in
rain mn
in
humidity
%
barometer
mb
20260508215214 89 0.0 0.0 0.00 0.00 0.00 59 991.3
20260508213714 89 0.0 0.0 0.00 0.00 0.00 58 991.3
20260508212213 90 0.0 0.0 0.00 0.00 0.00 58 991.3
20260508210713 89 0.0 0.0 0.00 0.00 0.00 58 991.5
20260508205213 89 0.0 0.0 0.00 0.00 0.00 58 991.6
20260508203713 90 0.0 0.0 0.00 0.00 0.00 57 991.6
20260508202213 90 0.0 0.0 0.00 0.00 0.00 57 991.7
20260508200713 90 0.0 0.0 0.00 0.00 0.00 56 991.9
20260508195213 90 0.0 0.0 0.00 0.00 0.00 56 992.0
20260508193713 91 0.0 0.0 0.00 0.00 0.00 56 992.1
20260508192213 91 0.0 0.0 0.00 0.00 0.00 55 992.2
20260508190712 91 0.0 0.0 0.00 0.00 0.00 54 992.4
20260508185213 91 0.0 0.0 0.00 0.00 0.00 54 992.4
20260508183713 92 0.0 0.0 0.00 0.00 0.00 53 992.6
20260508182212 92 0.0 0.0 0.00 0.00 0.00 53 992.8
20260508180723 92 0.0 0.0 0.00 0.00 0.00 52 987.3
20260508180521 92 0.0 0.0 0.00 0.00 0.00 52 992.7
20260508175021 92 0.0 0.0 0.00 0.00 0.00 52 992.8
20260508173521 93 0.0 0.0 0.00 0.00 0.00 51 992.8
20260508172020 93 0.0 0.0 0.00 0.00 0.00 50 992.6
20260508170520 94 0.0 0.0 0.00 0.00 0.00 49 992.6
20260508165021 94 0.0 0.0 0.00 0.00 0.00 48 992.5
20260508163520 94 0.0 0.0 0.00 0.00 0.00 47 992.5
20260508162021 94 0.0 0.0 0.00 0.00 0.00 47 992.3
20260508160520 95 0.0 0.0 0.00 0.00 0.00 46 992.2
20260508155020 95 0.0 0.0 0.00 0.00 0.00 46 991.9
20260508153520 95 0.0 0.0 0.00 0.00 0.00 45 991.8
20260508152019 96 0.0 0.0 0.00 0.00 0.00 44 991.7
20260508150520 97 0.0 0.0 0.00 0.00 0.00 43 991.4
20260508145019 97 0.0 0.0 0.00 0.00 0.00 42 991.2
20260508143526 97 0.0 0.0 0.00 0.00 0.00 40 991.0
20260508142019 98 0.0 0.0 0.00 0.00 0.00 39 990.8
20260508140519 98 0.0 0.0 0.00 0.00 0.00 38 990.7
20260508135020 99 0.0 0.0 0.00 0.00 0.00 37 990.5
20260508133519 100 0.0 0.0 0.00 0.00 0.00 37 990.3
20260508132019 100 0.0 0.0 0.00 0.00 0.00 37 990.0
20260508130519 101 0.0 0.0 0.00 0.00 0.00 36 989.8
20260508125019 102 0.0 0.0 0.00 0.00 0.00 35 989.5
20260508123519 103 0.0 0.0 0.00 0.00 0.00 32 989.3
20260508122018 104 0.0 0.0 0.00 0.00 0.00 31 989.2
20260508120519 105 0.0 0.0 0.00 0.00 0.00 25 989.0
20260508115019 105 0.0 0.0 0.00 0.00 0.00 18 988.8
20260508113518 108 0.0 0.0 0.00 0.00 0.00 17 988.8
20260508112018 109 0.0 0.0 0.00 0.00 0.00 17 988.7
20260508110527 110 0.0 0.0 0.00 0.00 0.00 16 988.7
20260508105018 110 0.0 0.0 0.00 0.00 0.00 16 988.9
20260508103518 110 0.0 0.0 0.00 0.00 0.00 17 989.1
20260508102018 110 0.0 0.0 0.00 0.00 0.00 16 989.2
20260508100529 110 0.0 0.0 0.00 0.00 0.00 17 982.4
20260508095617 110 0.0 0.0 0.00 0.00 0.00 17 989.5
20260508094117 110 0.0 0.0 0.00 0.00 0.00 17 989.7
20260508092618 110 0.0 0.0 0.00 0.00 0.00 18 990.0
20260508091118 110 0.0 0.0 0.00 0.00 0.00 18 990.3
20260508085616 109 0.0 0.0 0.00 0.00 0.00 18 990.4
20260508084117 109 0.0 0.0 0.00 0.00 0.00 20 990.6
20260508082617 108 0.0 0.0 0.00 0.00 0.00 20 990.9
20260508081117 108 0.0 0.0 0.00 0.00 0.00 20 991.1
20260508075617 106 0.0 0.0 0.00 0.00 0.00 20 991.4
20260508074116 105 0.0 0.0 0.00 0.00 0.00 23 991.5
20260508072616 104 0.0 0.0 0.00 0.00 0.00 24 991.8
20260508071116 103 0.0 0.0 0.00 0.00 0.00 23 991.9
20260508065617 101 0.0 0.0 0.00 0.00 0.00 24 992.1
20260508064116 100 0.0 0.0 0.00 0.00 0.00 24 992.3
20260508062616 99 0.0 0.0 0.00 0.00 0.00 25 992.4
20260508061115 98 0.0 0.0 0.00 0.00 0.00 25 992.5
20260508055616 97 0.0 0.0 0.00 0.00 0.00 26 992.6
20260508054116 97 0.0 0.0 0.00 0.00 0.00 29 992.7
20260508052616 96 0.0 0.0 0.00 0.00 0.00 32 992.7
20260508051115 95 0.0 0.0 0.00 0.00 0.00 35 992.7
20260508045615 95 0.0 0.0 0.00 0.00 0.00 38 992.8
20260508044115 94 0.0 0.0 0.00 0.00 0.00 39 992.9
20260508042615 93 0.0 0.0 0.00 0.00 0.00 43 993.0
20260508041115 92 0.0 0.0 0.00 0.00 0.00 45 993.1
20260508035615 91 0.0 0.0 0.00 0.00 0.00 48 993.1
20260508034114 90 0.0 0.0 0.00 0.00 0.00 49 993.0
20260508032615 89 0.0 0.0 0.00 0.00 0.00 50 993.0
20260508031115 88 0.0 0.0 0.00 0.00 0.00 51 992.9
20260508025614 88 0.0 0.0 0.00 0.00 0.00 52 992.8
20260508024114 88 0.0 0.0 0.00 0.00 0.00 53 992.6
20260508022614 87 0.0 0.0 0.00 0.00 0.00 52 992.5
20260508021114 87 0.0 0.0 0.00 0.00 0.00 53 992.3
20260508015613 87 0.0 0.0 0.00 0.00 0.00 55 992.1
20260508014113 87 0.0 0.0 0.00 0.00 0.00 55 991.9
20260508012613 87 0.0 0.0 0.00 0.00 0.00 56 991.5
20260508011114 87 0.0 0.0 0.00 0.00 0.00 56 991.3
20260508005613 87 0.0 0.0 0.00 0.00 0.00 56 991.0
20260508004112 87 0.0 0.0 0.00 0.00 0.00 56 990.9
20260508002612 87 0.0 0.0 0.00 0.00 0.00 55 990.8
20260508001112 88 0.0 0.0 0.00 0.00 0.00 54 990.7
20260507235613 88 0.0 0.0 0.00 0.00 0.00 54 990.6
20260507234112 87 0.0 0.0 0.00 0.00 0.00 53 990.3
20260507232613 87 0.0 0.0 0.00 0.00 0.00 53 990.3
20260507231112 88 0.0 0.0 0.00 0.00 0.00 53 990.3
20260507225613 88 0.0 0.0 0.00 0.00 0.00 52 990.1
20260507224111 88 0.0 0.0 0.00 0.00 0.00 50 990.0
20260507222611 89 0.0 0.0 0.00 0.00 0.00 48 990.1
20260507221112 89 0.0 0.0 0.00 0.00 0.00 48 990.1